Skip Page Navigation
NASA JPL Caltech
NASA Logo - Jet Propulsion Laboratory + View the NASA Portal
+ Center for Near-Earth Object Studies
JPL Home Earth Solar System Stars & Galaxies Technology
JPL Solar System Dynamics
BODIES ORBITS EPHEMERIDES TOOLS PHYSICAL DATA DISCOVERY FAQ SITE MAP
JPL Small-Body Database Browser
Search: [ help ]  
190701 (2001 FZ56)
Classification: Main-belt Asteroid          SPK-ID: 2190701
Ephemeris | Orbit Diagram | Orbital Elements | Mission Design | Physical Parameters | Discovery Circumstances | Close-Approach Data ]

[ show orbit diagram ]
Orbital Elements at Epoch 2459396.5 (2021-Jul-01.0) TDB
Reference: JPL 24 (heliocentric ecliptic J2000)
 Element Value Uncertainty (1-sigma)   Units 
e .2308671604766399 6.5436e-08  
a 3.163090037358892 2.7617e-08 au
q 2.432836422101896 2.1073e-07 au
i 23.209729069579 9.3894e-06 deg
node 9.64899607697985 1.0259e-05 deg
peri 212.9631559942453 2.3182e-05 deg
M 169.9850135745539 2.4381e-05 deg
tp 2458426.271803547327
(2018-Nov-03.77180355)
0.00013158 TDB
period 2054.782026827149
5.63
2.6911e-05
7.368e-08
d
yr
n .1752010652710871 2.2945e-09 deg/d
Q 3.893343652615889 3.3993e-08 au
  Orbit Determination Parameters
   # obs. used (total)      769  
   data-arc span      7235 days (19.81 yr)  
   first obs. used      2001-03-16  
   last obs. used      2021-01-05  
   planetary ephem.      DE441  
   SB-pert. ephem.      SB441-N16  
   condition code      0  
   norm. resid. RMS      .50713  
   source      ORB  
   producer      Otto Matic  
   solution date      2021-Jul-09 15:25:03  

Additional Information
 Earth MOID = 1.45545 au 
 Jupiter MOID = 1.21321 au 
 T_jup = 3.039 
[ hide covariance matrix ]
Orbital Elements at Epoch 2458062.5 (2017-Nov-05.0) TDB
Reference: JPL 24 (heliocentric ecliptic J2000)
 Element Value Uncertainty (1-sigma)   Units 
e .2307091060665273 6.5415e-08  
q 2.434167051612773 2.1036e-07 au
tp 2458427.885905382871
(2018-Nov-05.38590538)
0.00013194 TDB
node 9.706972686539974 1.026e-05 deg
peri 213.2687372662055 2.3228e-05 deg
i 23.21398445831479 9.3891e-06 deg
  Orbit Determination Parameters
   # obs. used (total)      769  
   data-arc span      7235 days (19.81 yr)  
   first obs. used      2001-03-16  
   last obs. used      2021-01-05  
   planetary ephem.      DE441  
   SB-pert. ephem.      SB441-N16  
   condition code      0  
   norm. resid. RMS      .50713  
   source      ORB  
   producer      Otto Matic  
   solution date      2021-Jul-09 15:25:03  

Additional Information
 Jupiter MOID = 1.21321 au 
 T_jup = 3.039 
Orbit Covariance (6×6)
  e q tp node peri i
e 4.279074865327396E-15 -1.369147469116431E-14 -6.114864870589027E-12 6.150272428079679E-15 -1.027820605515183E-12 -7.594618757359555E-15
q -1.369147469116431E-14 4.424964790502925E-14 2.087616454439805E-11 -2.176851759792313E-14 3.466325865643556E-12 2.939911654099368E-14
tp -6.114864870589027E-12 2.087616454439805E-11 1.740894031868629E-8 -1.911735455184064E-11 2.757762644052565E-9 3.265157306229154E-11
node 6.150272428079679E-15 -2.176851759792313E-14 -1.911735455184064E-11 1.052596377116093E-10 -9.930598464203801E-11 -4.107147904884006E-11
peri -1.027820605515183E-12 3.466325865643556E-12 2.757762644052565E-9 -9.930598464203801E-11 5.395395254494731E-10 4.25686244545212E-11
i -7.594618757359555E-15 2.939911654099368E-14 3.265157306229154E-11 -4.107147904884006E-11 4.25686244545212E-11 8.815526394807782E-11

Ephemeris | Orbit Diagram | Orbital Elements | Mission Design | Physical Parameters | Discovery Circumstances | Close-Approach Data ]

Physical Parameter Table
Parameter Symbol Value Units Sigma Reference Notes
absolute magnitude H 14.5   n/a MPO449946  

190701 (2001 FZ56)          Discovered 2001-Mar-23 by LONEOS at Anderson Mesa
Reference: 20080917/Numbers.arcLast Updated: 2008-09-19

[ show close-approach data ]
Ephemeris | Orbit Diagram | Orbital Elements | Mission Design | Physical Parameters | Discovery Circumstances | Close-Approach Data ]
ABOUT SSD CREDITS/AWARDS PRIVACY/COPYRIGHT GLOSSARY LINKS
FirstGov 2021-Jul-30 20:38 UT
(server date/time)  
NASA Home Page
Site Manager:   Ryan S. Park
Webmaster  Alan B. Chamberlin